Terminal Aerodrome Forecast
Issued by NWS Quad Cities IA IL

Home | Current Version | Previous Version | Text Only | Print | Product List | Glossary On
Versions: 1 2 3 4 5 6 7 8 9 10 11 12 13 14 15 16 17 18 19 20 21 22 23 24 25 26 27 28 29
021
FTUS43 KDVN 250420 AAA
TAFMLI
TAF AMD
KMLI 250420Z 2504/2524 14012KT P6SM SCT250 WS020/16040KT
     FM251500 15017G25KT P6SM BKN150=

USA.gov is the U.S. government's official web portal to all federal, state and local government web resources and services.